[Date Prev][Date Next][Thread Prev][Thread Next] - [Date Index][Thread Index][Author Index]

2 Line ISS Keps 12-19



ISS
1 25544U 98067A   02353.12433821  .00027380  00000-0  36689-3 0  4885
2 25544  51.6330 204.6055 0003519 284.2932 221.5305 15.57760802232815


----
Via the sarex mailing list at AMSAT.ORG courtesy of AMSAT-NA.
To unsubscribe, send "unsubscribe sarex" to Majordomo@amsat.org



AMSAT Top AMSAT Home